User: anonymous
Location: Fort Wayne
(41.1310°N, 85.1290°W)
Time: 00:22:20
(UTC-04:00)
Language:

Meteor 2-9 Rocket - Orbit

View from above orbital plane
View from above orbital plane
View from above satellite
View from above satellite

Ground track
Ground track

The orbit data is extracted from the following two-line orbital elements,

1 13719U 82116B   14292.78265671  .00000132  00000-0  61146-4 0  5364
2 13719 081.2562 231.9014 0070954 243.1920 176.9733 14.14487486643032
Epoch (UTC): 19 October 2014 18:47:01
Eccentricity: 0.0070954
inclination: 81.2562°
perigee height: 793 km
apogee height: 895 km
right ascension of ascending node: 231.9014°
argument of perigee: 243.1920°
revolutions per day: 14.14487486
mean anomaly at epoch: 176.9733°
orbit number at epoch: 64303

The dashed part of the orbit path shows where the satellite is in the earth's shadow,  

DLR